Flag for Lithuania Weather past 2 weeks in Vilnius, Lithuania

Now
57 °F

Clear.


Feels Like: 57 °F
Forecast: 56 / 82 °F
Wind: No wind

Location: Vilnius Airport

Current Time: Aug 31, 2015 at 4:33:53 AM

Latest Report: Aug 31, 2015 at 4:20 AM


Visibility: 10 mi

Pressure: 30.09 "Hg

Humidity: 77%

Dew point: 50 °F

Location of VilniusLocation

Historic Weather in Vilnius — Graph

°F

Vilnius temperature yesterday

Maximum temperature yesterday: 73 °F (at 4:50 PM)
Minimum temperature yesterday: 43 °F (at 5:20 AM)
Average temperature yesterday: 59 °F

Past Weeks' High & Low Weather Summary

 TemperatureHumidityPressure
High88 °F (Aug 25, 2:50 PM)100% (Aug 26, 5:50 AM)30.45 "Hg (Aug 26, 5:50 AM)
Low43 °F (Aug 30, 5:20 AM)22% (Aug 25, 2:50 PM)29.86 "Hg (Aug 28, 11:50 AM)
Average64 °F60%30.15 "Hg
* Reported Aug 16 3:20 AM — Aug 31 3:20 AM, Vilnius, Weather by CustomWeather, © 2015

Note: Actual official high and low records may vary slightly from our data, if they occured in-between our weather recording intervals... More about our weather records

Advertising

Vilnius weather history for previous 24 hours

 ConditionsComfort  
Time TempWeatherWind HumidityBarometerVisibility
3:20 AM
Mon, Aug 31
57 °FClear.1 mph82%30.09 "Hg10 mi
2:50 AM57 °FClear.No wind82%30.09 "Hg10 mi
2:20 AM55 °FClear.No wind88%30.09 "Hg10 mi
1:50 AM57 °FClear.1 mph77%30.09 "Hg10 mi
1:20 AM59 °FClear.1 mph72%30.09 "Hg10 mi
12:20 AM57 °FClear.1 mph82%30.09 "Hg10 mi
11:50 PM
Sun, Aug 30
57 °FClear.No wind82%30.09 "Hg10 mi
11:20 PM59 °FClear.No wind77%30.12 "Hg10 mi
10:50 PM59 °FClear.1 mph77%30.12 "Hg10 mi
10:20 PM59 °FClear.1 mph77%30.12 "Hg10 mi
9:50 PM61 °FClear.No wind72%30.12 "Hg10 mi
9:20 PM63 °FClear.No wind68%30.12 "Hg10 mi
8:50 PM66 °FSunny.1 mph52%30.12 "Hg10 mi
8:20 PM64 °FSunny.No wind56%30.12 "Hg10 mi
7:50 PM68 °FSunny.3 mph49%30.12 "Hg10 mi
7:20 PM70 °FSunny.2 mph43%30.12 "Hg10 mi
6:50 PM72 °FSunny.3 mph41%30.12 "Hg10 mi
6:20 PM72 °FSunny.2 mph44%30.12 "Hg10 mi
5:50 PM72 °FSunny.6 mph38%30.15 "Hg10 mi
5:20 PM73 °FSunny.3 mph38%30.15 "Hg10 mi
4:50 PM73 °FSunny.3 mph38%30.15 "Hg10 mi
4:20 PM72 °FPassing clouds.7 mph41%30.15 "HgN/A
3:50 PM72 °FSunny.6 mph41%30.18 "Hg10 mi
3:20 PM72 °FBroken clouds.6 mph44%30.18 "HgN/A
2:50 PM70 °FBroken clouds.9 mph46%30.21 "HgN/A
2:20 PM72 °FBroken clouds.10 mph44%30.21 "HgN/A
1:50 PM70 °FBroken clouds.10 mph50%30.21 "HgN/A
1:20 PM68 °FBroken clouds.12 mph53%30.21 "HgN/A
12:50 PM68 °FBroken clouds.9 mph53%30.24 "HgN/A
12:20 PM66 °FPassing clouds.5 mph60%30.21 "HgN/A
11:50 AM66 °FPassing clouds.9 mph60%30.24 "HgN/A
11:20 AM64 °FPassing clouds.8 mph60%30.24 "HgN/A
10:50 AM61 °FPartly sunny.7 mph77%30.24 "HgN/A
10:20 AM61 °FCool.6 mph77%30.24 "HgN/A
9:50 AM57 °FSunny.5 mph88%30.24 "Hg10 mi
9:20 AM52 °FSunny.5 mph100%30.27 "Hg10 mi
8:50 AM50 °FSunny.5 mph100%30.27 "Hg10 mi
8:20 AM48 °FClear.5 mph100%30.27 "Hg5 mi
7:50 AM46 °FClear.5 mph93%30.27 "Hg4 mi
7:20 AM45 °FClear.5 mph93%30.24 "Hg4 mi
6:50 AM45 °FFog.5 mph93%30.24 "Hg1 mi
6:20 AM43 °FFog.6 mph93%30.24 "Hg0 mi
5:50 AM45 °FFog.5 mph93%30.24 "Hg2 mi
5:20 AM43 °FFog.3 mph93%30.24 "Hg2 mi
4:50 AM45 °FFog.2 mph93%30.24 "Hg2 mi
4:20 AM46 °FFog.3 mph93%30.24 "Hg2 mi
Weather by CustomWeather, © 2015

See weather overviewHow to use our weather pages